Location: Bezawada
(16.5136°N, 80.6297°E)
Time: 09:25:17
(UTC+00:00)

Cosmos 1833 Rocket - Pass Details

Date: 27 February 2020
Orbit: 832 x 840 km, 71.0° (Epoch: 09 April)

Event Time Altitude Azimuth Distance (km) Brightness Sun altitude
Rises 23:31:22 0° 181° (S) 3,370 5.9 -21.2°
Reaches altitude 10° 23:33:54 10° 175° (S) 2,438 5.2 -20.5°
Maximum altitude 23:39:11 44° 104° (ESE) 1,138 3.8 -19.3°
Drops below altitude 10° 23:44:29 10° 33° (NNE) 2,447 5.5 -18.0°
Sets 23:47:01 0° 27° (NNE) 3,383 6.2 -17.4°
